Карточка аэропорта UOOO

Внимание!
Информация на этой странице в стадии наполнения.
Если вы не увидели какой-то информации, или заметили неточность - пожалуйста сообщите нам!
Спасибо!
Команда RU-STAFF
Название аэропортаАлыкель
Название аэропорта (англ.)Alykel
Превышение574 ft. (175 m.)
Координаты69°19.02', 87°19.02'
Высота перехода1200m
Эшелон переходаQFE>744:FL60;744>QFE>717:FL70;717>QFE:FL80
Коды ответчика5401-5427
Зона ОрВДКрасноярск РПИ (UNKL)
Данные METARUOOO 051130Z 06007MPS CAVOK M16/M19 Q1013 R01/810360 NOSIG RMK QFE745/0993
Проноз погоды (TAF)UOOO 050759Z 0509/0609 07003G08MPS 6000 SCT016 TEMPO 0512/0603 3200 FU BR
NOTAMshow/hide NOTAM
AWOS   TABLE

Информация о ВПП

ВПП Длина ВПП (м.) Покрытие Курс ВПП Частота ILS
013430Бетон13109.5
193430Бетон193110.3

Диспетчерские позиции

Позывной Наименование органа УВД Частота
UOOO_GNDНорильск - Руление121.700
UOOO_R_APPНорильск - Круг120.400
UOOO_TWRНорильск - Старт118.300



Спутниковое изображение